Weather History for Great Falls, MT

Change the Weather History Date:

Tuesday, February 4, 2014

  Actual Average Record
Temperature  
Mean Temperature -13 °F 26 °F  
Max Temperature -4 °F 37 °F 62 °F (1963)
Min Temperature -23 °F 16 °F -33 °F (1989)
Degree Days  
Heating Degree Days 78 39  
Month to date heating degree days 254 156  
Since 1 July heating degree days 4505 4607  
Cooling Degree Days 0 0  
Month to date cooling degree days 0 0  
Year to date cooling degree days 0 0  
Moisture  
Dew Point -16 °F    
Average Humidity 80    
Maximum Humidity 92    
Minimum Humidity 68    
Precipitation  
Precipitation 0.02 in 0.01 in 0.43 in (1944)
Month to date precipitation 0.19 0.06  
Year to date precipitation 1.48 0.57  
Snow  
Snow 0.40 in 0.30 in 3.10 in (1962)
Month to date snowfall 4.5 1.2  
Since 1 July snowfall 46.5 33.0  
Snow Depth 7.00 in    
Sea Level Pressure  
Sea Level Pressure 30.60 in    
Wind  
Wind Speed 6 mph (NW)    
Max Wind Speed 18 mph    
Max Gust Speed 22 mph    
Visibility 5 miles    
Events Snow    
T = Trace of Precipitation, MM = Missing Value Source: NWS Daily Summary

Daily Weather History Graph

Daily Weather History Graph

Search for Another Location

Airport:

Trip Planner

Search our weather history database for the weather conditions in past years. The results will help you decide how hot, cold, wet, or windy it might be!

Date:

Astronomy

Feb. 04, 2014 Rise Set
Actual Time 7:47 AM MST 5:32 PM MST
Civil Twilight 7:14 AM MST 6:04 PM MST
Nautical Twilight 6:38 AM MST 6:41 PM MST
Astronomical Twilight 6:02 AM MST 7:17 PM MST
Moon 10:01 AM MST (2/4) 11:58 PM MST (2/4)
Length of Visible Light 10h 49m
Length of Day
9h 44m
Waxing Crescent, 29% of the Moon is Illuminated
Feb 4
Waxing Crescent
Feb 6
First Quarter
Feb 14
Full
Feb 22
Last Quarter
Mar 1
New

Hourly Weather History & Observations

Time (MST) Temp. Windchill Dew Point Humidity Pressure Visibility Wind Dir Wind Speed Gust Speed Precip Events Conditions
12:53 AM -4.0 °F -23.0 °F -7.1 °F 87% 30.60 in 9.0 mi NNE 12.7 mph - N/A   Overcast
1:53 AM -6.0 °F -23.6 °F -9.9 °F 83% 30.62 in 5.0 mi North 10.4 mph - 0.00 in Snow Light Snow
2:02 AM -5.8 °F -24.4 °F -9.4 °F 84% 30.33 in 4.0 mi North 11.5 mph - 0.00 in Snow Light Snow
2:53 AM -8.0 °F -21.0 °F -11.0 °F 86% 30.65 in 5.0 mi North 5.8 mph - 0.00 in Snow Light Snow
3:09 AM -9.4 °F -24.3 °F -13.0 °F 84% 30.35 in 4.0 mi NNW 6.9 mph - 0.00 in Snow Light Snow
3:53 AM -9.0 °F -22.3 °F -11.9 °F 87% 30.67 in 6.0 mi North 5.8 mph - 0.00 in Snow Light Snow
4:53 AM -8.0 °F -16.9 °F -11.9 °F 83% 30.68 in 2.5 mi WNW 3.5 mph - 0.00 in Snow Light Snow
5:05 AM -9.4 °F -18.6 °F -13.0 °F 84% 30.38 in 1.8 mi WNW 3.5 mph - 0.00 in Snow Light Snow
5:26 AM -9.4 °F -20.9 °F -13.0 °F 84% 30.38 in 2.5 mi West 4.6 mph - 0.00 in Snow Light Snow
5:37 AM -9.4 °F -24.3 °F -14.8 °F 77% 30.38 in 3.0 mi WNW 6.9 mph - 0.00 in Snow Light Snow
5:44 AM -11.2 °F -24.8 °F -14.8 °F 84% 30.38 in 3.0 mi WNW 5.8 mph - 0.00 in Snow Light Snow
5:53 AM -11.9 °F -27.3 °F -15.0 °F 86% 30.70 in 3.0 mi NW 6.9 mph - 0.00 in Snow Light Snow
6:53 AM -11.9 °F -25.7 °F -15.0 °F 86% 30.72 in 2.5 mi WNW 5.8 mph - 0.00 in Snow Light Snow
7:53 AM -11.9 °F -21.5 °F -17.0 °F 78% 30.74 in 3.0 mi WNW 3.5 mph - 0.00 in   Haze
8:16 AM -11.2 °F -20.6 °F -16.6 °F 77% 30.42 in 2.0 mi NW 3.5 mph - 0.00 in Snow Light Snow
8:23 AM -11.2 °F -23.0 °F -16.6 °F 77% 30.42 in 1.2 mi WNW 4.6 mph - 0.00 in Snow Light Snow
8:34 AM -13.0 °F -25.1 °F -16.6 °F 84% 30.43 in 1.5 mi WNW 4.6 mph - 0.00 in Snow Light Snow
8:53 AM -15.0 °F -27.4 °F -18.9 °F 82% 30.76 in 1.5 mi WNW 4.6 mph - 0.01 in   Overcast
9:09 AM -14.8 °F -27.2 °F -18.4 °F 84% 30.44 in 3.0 mi West 4.6 mph - N/A   Overcast
9:23 AM -13.0 °F -25.1 °F -16.6 °F 84% 30.44 in 2.5 mi WNW 4.6 mph - N/A   Overcast
9:41 AM -9.4 °F -18.6 °F -14.8 °F 77% 30.45 in 4.0 mi WNW 3.5 mph - 0.00 in Snow Light Snow
9:51 AM -9.4 °F -18.6 °F -14.8 °F 77% 30.45 in 2.5 mi WNW 3.5 mph - 0.00 in Snow Light Snow
9:53 AM -9.9 °F -21.5 °F -14.1 °F 82% 30.77 in 2.5 mi WNW 4.6 mph - 0.00 in Snow Light Snow
10:05 AM -9.4 °F - -14.8 °F 77% 30.45 in 7.0 mi Calm Calm - 0.00 in   Overcast
10:53 AM -9.0 °F -20.4 °F -15.0 °F 75% 30.79 in 10.0 mi WNW 4.6 mph - 0.00 in   Scattered Clouds
11:53 AM -8.0 °F -19.2 °F -13.0 °F 79% 30.80 in 10.0 mi WNW 4.6 mph - N/A   Scattered Clouds
12:07 PM -7.6 °F -20.6 °F -13.0 °F 77% 30.47 in 10.0 mi NW 5.8 mph - N/A   Mostly Cloudy
12:27 PM -5.8 °F -18.4 °F -11.2 °F 77% 30.47 in 10.0 mi NNW 5.8 mph - N/A   Mostly Cloudy
12:53 PM -6.0 °F -22.6 °F -11.9 °F 75% 30.79 in 10.0 mi North 9.2 mph - N/A   Partly Cloudy
1:07 PM -5.8 °F -21.2 °F -13.0 °F 71% 30.47 in 6.0 mi North 8.1 mph - N/A   Haze
1:31 PM -5.8 °F -21.2 °F -13.0 °F 71% 30.46 in 10.0 mi North 8.1 mph - N/A   Scattered Clouds
1:53 PM -6.0 °F -20.1 °F -13.0 °F 72% 30.78 in 10.0 mi NNW 6.9 mph - N/A   Clear
2:53 PM -6.0 °F -18.6 °F -13.0 °F 72% 30.79 in 10.0 mi North 5.8 mph - N/A   Clear
3:51 PM -5.8 °F -18.4 °F -13.0 °F 71% 30.47 in 3.0 mi North 5.8 mph - 0.00 in Snow Light Snow
3:53 PM -7.1 °F -19.9 °F -13.0 °F 75% 30.81 in 4.0 mi North 5.8 mph - 0.00 in Snow Light Snow
4:18 PM -9.4 °F -24.3 °F -14.8 °F 77% 30.47 in 7.0 mi North 6.9 mph - 0.00 in   Scattered Clouds
4:53 PM -11.9 °F -27.3 °F -17.0 °F 78% 30.83 in 10.0 mi North 6.9 mph - 0.00 in   Partly Cloudy
5:29 PM -13.0 °F -22.7 °F -16.6 °F 84% 30.49 in 6.0 mi NNW 3.5 mph - N/A   Mostly Cloudy
5:53 PM -11.9 °F -21.5 °F -16.1 °F 82% 30.85 in 5.0 mi North 3.5 mph - N/A   Overcast
6:00 PM -11.2 °F -20.6 °F -16.6 °F 77% 30.50 in 3.0 mi NNW 3.5 mph - 0.00 in Snow Light Snow
6:24 PM -11.2 °F -23.0 °F -16.6 °F 77% 30.51 in 4.0 mi NNW 4.6 mph - 0.00 in Snow Light Snow
6:53 PM -11.0 °F -26.2 °F -15.0 °F 83% 30.87 in 5.0 mi North 6.9 mph - 0.00 in   Overcast
7:53 PM -13.0 °F -28.6 °F -16.1 °F 86% 30.89 in 2.5 mi North 6.9 mph - 0.00 in Snow Light Snow
8:00 PM -13.0 °F -28.6 °F -16.6 °F 84% 30.53 in 3.0 mi North 6.9 mph - 0.00 in   Overcast
8:11 PM -11.2 °F -26.4 °F -16.6 °F 77% 30.53 in 2.5 mi North 6.9 mph - 0.00 in Snow Light Snow
8:33 PM -14.8 °F -27.2 °F -18.4 °F 84% 30.53 in 3.0 mi North 4.6 mph - 0.01 in Snow Light Snow
8:48 PM -14.8 °F -29.1 °F -18.4 °F 84% 30.53 in 3.0 mi North 5.8 mph - 0.01 in   Overcast
8:53 PM -16.1 °F -30.6 °F -18.9 °F 87% 30.92 in 4.0 mi North 5.8 mph - 0.01 in   Overcast
8:57 PM -16.6 °F -29.3 °F -20.2 °F 84% 30.54 in 5.0 mi North 4.6 mph - N/A   Overcast
9:13 PM -14.8 °F - -18.4 °F 84% 30.54 in 1.8 mi Calm Calm - 0.00 in Snow Light Snow
9:31 PM -14.8 °F -24.8 °F -18.4 °F 84% 30.54 in 1.8 mi NW 3.5 mph - 0.00 in Snow Light Snow
9:41 PM -14.8 °F -27.2 °F -18.4 °F 84% 30.54 in 2.0 mi NW 4.6 mph - 0.00 in Snow Light Snow
9:53 PM -16.1 °F -28.6 °F -18.9 °F 87% 30.91 in 5.0 mi NW 4.6 mph - 0.00 in   Overcast
10:19 PM -16.6 °F -31.3 °F -20.2 °F 84% 30.55 in 3.0 mi NW 5.8 mph - 0.00 in Snow Light Snow
10:26 PM -16.6 °F -31.3 °F -18.4 °F 92% 30.55 in 2.0 mi NW 5.8 mph - 0.00 in Snow Light Snow
10:33 PM -18.4 °F -33.4 °F -22.0 °F 84% 30.55 in 4.0 mi NW 5.8 mph - 0.00 in   Overcast
10:53 PM -20.9 °F -38.1 °F -25.1 °F 81% 30.93 in 10.0 mi WNW 6.9 mph - 0.00 in   Overcast
11:53 PM -20.9 °F -31.7 °F -24.0 °F 86% 30.95 in 10.0 mi West 3.5 mph - N/A   Overcast